Weather History for Midland, TX

Change the Weather History Date:

Sunday, October 7, 2012

  Actual Average Record
Temperature  
Mean Temperature 47 °F 68 °F  
Max Temperature 51 °F 81 °F 99 °F (1979)
Min Temperature 43 °F 55 °F 38 °F (1976)
Degree Days  
Heating Degree Days 18 2  
Month to date heating degree days 31 10  
Since 1 July heating degree days 42 21  
Cooling Degree Days 0 5  
Month to date cooling degree days 15 37  
Year to date cooling degree days 2804 2216  
Moisture  
Dew Point 32 °F    
Average Humidity 57    
Maximum Humidity 62    
Minimum Humidity 52    
Precipitation  
Precipitation 0.00 in 0.07 in 0.78 in (1954)
Month to date precipitation T 0.46  
Year to date precipitation 12.60 12.04  
Snow  
Snow 0.00 in - - ()
Month to date snowfall 0.0  
Since 1 July snowfall 0.0  
Since 1 September snowfall 0.0  
Snow Depth 0.00 in    
Sea Level Pressure  
Sea Level Pressure 30.20 in    
Wind  
Wind Speed 10 mph (ENE)    
Max Wind Speed 22 mph    
Max Gust Speed 26 mph    
Visibility 10 miles    
Events      
T = Trace of Precipitation, MM = Missing Value Source: NWS Daily Summary

Daily Weather History Graph

Daily Weather History Graph

Search for Another Location

Airport:

Trip Planner

Search our weather history database for the weather conditions in past years. The results will help you decide how hot, cold, wet, or windy it might be!

Date:

Astronomy

Oct. 07, 2012 Rise Set
Actual Time 7:47 AM CDT 7:25 PM CDT
Civil Twilight 7:22 AM CDT 7:49 PM CDT
Nautical Twilight 6:54 AM CDT 8:18 PM CDT
Astronomical Twilight 6:25 AM CDT 8:46 PM CDT
Moon No Moon Rise 2:11 PM CDT (10/7)
Length of Visible Light 12h 27m
Length of Day
11h 38m
Waning Gibbous, 56% of the Moon is Illuminated
Oct 7
Waning Gibbous
Oct 8
Last Quarter
Oct 15
New
Oct 21
First Quarter
Oct 29
Full

Hourly Weather History & Observations

Time (CDT) Temp. Windchill Dew Point Humidity Pressure Visibility Wind Dir Wind Speed Gust Speed Precip Events Conditions
12:53 AM 45.0 °F 37.1 °F 32.0 °F 60% 30.21 in 10.0 mi NE 19.6 mph 24.2 mph N/A   Overcast
1:53 AM 45.0 °F 37.6 °F 28.9 °F 53% 30.21 in 10.0 mi NE 17.3 mph 24.2 mph N/A   Overcast
2:45 AM 44.6 °F 37.4 °F 28.4 °F 53% 30.27 in 10.0 mi NE 16.1 mph - N/A   Overcast
2:53 AM 45.0 °F 37.6 °F 28.9 °F 53% 30.22 in 10.0 mi NE 17.3 mph - N/A   Overcast
3:53 AM 44.1 °F 37.1 °F 28.9 °F 55% 30.22 in 10.0 mi NE 15.0 mph - N/A   Overcast
4:53 AM 44.1 °F 36.8 °F 28.9 °F 55% 30.21 in 10.0 mi NE 16.1 mph - N/A   Overcast
5:53 AM 44.1 °F 37.4 °F 30.0 °F 58% 30.20 in 10.0 mi ENE 13.8 mph - N/A   Overcast
6:23 AM 42.8 °F 35.1 °F 28.4 °F 57% 30.25 in 10.0 mi ENE 16.1 mph - N/A   Overcast
6:53 AM 43.0 °F 36.0 °F 30.0 °F 60% 30.21 in 10.0 mi NE 13.8 mph - N/A   Overcast
7:53 AM 43.0 °F 36.4 °F 30.9 °F 62% 30.23 in 10.0 mi East 12.7 mph - N/A   Overcast
8:53 AM 43.0 °F 37.2 °F 28.9 °F 58% 30.24 in 10.0 mi ENE 10.4 mph - N/A   Overcast
9:16 AM 42.8 °F 37.0 °F 30.2 °F 61% 30.28 in 10.0 mi East 10.4 mph - N/A   Overcast
9:53 AM 44.1 °F 39.0 °F 30.0 °F 58% 30.26 in 10.0 mi East 9.2 mph - N/A   Overcast
10:53 AM 45.0 °F 40.1 °F 30.0 °F 56% 30.26 in 10.0 mi ENE 9.2 mph - N/A   Overcast
11:53 AM 46.0 °F 43.9 °F 32.0 °F 58% 30.25 in 10.0 mi ENE 4.6 mph - N/A   Overcast
12:53 PM 46.9 °F - 32.0 °F 56% 30.22 in 10.0 mi SSE 5.8 mph - N/A   Overcast
1:28 PM 48.2 °F - 32.0 °F 54% 30.24 in 10.0 mi East 5.8 mph - N/A   Overcast
1:53 PM 48.0 °F - 32.0 °F 54% 30.18 in 10.0 mi ESE 9.2 mph - N/A   Overcast
2:53 PM 48.9 °F - 33.1 °F 54% 30.16 in 10.0 mi East 3.5 mph - N/A   Overcast
3:53 PM 50.0 °F - 34.0 °F 54% 30.14 in 10.0 mi NE 6.9 mph - N/A   Overcast
4:53 PM 50.0 °F - 34.0 °F 54% 30.13 in 10.0 mi ENE 3.5 mph - N/A   Overcast
5:53 PM 50.0 °F - 34.0 °F 54% 30.13 in 10.0 mi ENE 4.6 mph - N/A   Overcast
6:53 PM 50.0 °F - 33.1 °F 52% 30.14 in 10.0 mi ENE 11.5 mph - N/A   Overcast
7:53 PM 48.9 °F - 33.1 °F 54% 30.15 in 10.0 mi East 12.7 mph - N/A   Overcast
8:07 PM 48.2 °F - 33.8 °F 58% 30.19 in 10.0 mi East 10.4 mph - N/A   Overcast
8:53 PM 48.0 °F - 34.0 °F 58% 30.17 in 10.0 mi East 10.4 mph - N/A   Overcast
9:53 PM 46.9 °F - 34.0 °F 61% 30.19 in 10.0 mi East 10.4 mph - N/A   Overcast
10:53 PM 46.9 °F - 34.0 °F 61% 30.19 in 10.0 mi East 9.2 mph - N/A   Overcast
11:53 PM 46.9 °F - 34.0 °F 61% 30.19 in 10.0 mi ESE 6.9 mph - N/A   Overcast